COSMOS 2251 DEB, 34634

Orbit data source: Space-Track

COSMOS 2251 DEB, 34634 is space debris in LEO originally from a launch on Wed, 16 Jun 1993 UTC launched from the Plesetsk Missile And Space Complex (PKMTR). The debris from Iridium 33, an American commercial communications satellite, has been tracked extensively since its accidental collision with the defunct Russian satellite Cosmos 2251 in 2009. This event, occurring at high speed in low Earth orbit (LEO), generated thousands of pieces of space debris, significantly increasing the risk of further collisions. The Iridium 33 debris cloud has impacted space traffic management and orbital debris mitigation strategies, making it a subject of ongoing study in space situational awareness.

Loading next visibility...
Identifier
34634, 1993-036XF
Orbit
LEO
Country
Flag of CISCIS
Related business
Manufacturer
Unknown
Mission
Spacecraft
Bus & Motor
Unknown
Mass
Unknown
Launch date (UTC)
1993-06-16 (33 years ago)
Launch vehicle
Unknown
Launch site
Plesetsk Missile And Space Complex (PKMTR)
Object type
Payload
Rocket body
Debris
Shape & HBR
Unknown shape, 0.1 m
Radar Cross Section
Medium (>0.1 m² and <1 m²)

Expand to show TLE details & history
Last TLE update: 11 hours ago

TLE from 11 hours ago
0 COSMOS 2251 DEB
1 34634U 93036XF  26238.17648572  .00000820  00000-0  18908-3 0  9991
2 34634  74.0491 269.1579 0046721 308.6678 115.0455 14.56348504925146
Epoch: 2026-08-26T04:14Z
TLE epoch observation values (Epoch: 2026-08-26T04:14:08.366Z)
Latitude
60.06125°
Longitude
-99.23149°
Altitude
728.995 km
Speed
7.489 km/s
True Right ascension
19h 54m 56s
True Declination
59° 54' 42"
Sunlit
Object was in daylight at epoch
Visualization orbit readout
Latitude
Unknown
Longitude
Unknown
Altitude
Unknown
Speed
Unknown
Apparent Right ascension
Unknown
Apparent Declination
Unknown
Sunlit
N/A
Visualization observer readout
Local Sidereal Time
06:43:27
Azimuth
Unknown
Elevation
Unknown
Doppler factor
Unknown
Orbital elements
Apogee altitude
735.671 km
Perigee altitude
669.507 km
Semi-major axis
7,080.726 km
Eccentricity
0.00467
Inclination
74.0491°
RAAN
269.1579°
Arg. of periapsis
308.6678°
True anomaly
115.52934°
Mean anomaly
115.0455°
Eccentric anomaly
115.28754°
Mean motion
3.64273 °/min
Orbital period
98.83 mins
BSTAR
0.00018908
Loading maneuver chart data...
Computing Atmospheric mass density...

Documentation

Showing up to 5 results
|